| time (UTC) | temp F | wind direction | speed knots | gust knots | rain 1hr in | rain 24hr in | rain mn in | humidity % | barometer mb |
| 20260904090025 | 0 | 254 | 1.7 | 3.5 | 0.00 | 0.00 | 0.00 | 1019.7 | |
| 20260904084521 | 0 | 254 | 1.7 | 3.5 | 0.00 | 0.00 | 0.00 | 1019.5 | |
| 20260904083031 | 0 | 254 | 0.0 | 2.6 | 0.00 | 0.00 | 0.00 | 1019.4 | |
| 20260904081513 | 0 | 254 | 0.0 | 0.0 | 0.00 | 0.00 | 0.00 | 1019.4 | |
| 20260904080008 | 0 | 254 | 0.0 | 0.0 | 0.00 | 0.00 | 0.00 | 1019.3 | |
| 20260904074503 | 0 | 254 | 0.0 | 0.0 | 0.00 | 0.00 | 0.00 | 1019.4 | |
| 20260904073115 | 0 | 254 | 0.0 | 0.0 | 0.00 | 0.00 | 0.00 | 1019.2 | |
| 20260904071555 | 0 | 254 | 0.0 | 0.0 | 0.00 | 0.00 | 0.00 | 1019.0 | |
| 20260904070051 | 0 | 254 | 0.0 | 0.0 | 0.00 | 0.00 | 0.00 | 1019.0 | |
| 20260904064547 | 0 | 254 | 0.0 | 0.0 | 0.00 | 0.00 | 0.00 | 1019.1 | |
| 20260904063045 | 0 | 254 | 0.0 | 0.0 | 0.00 | 0.00 | 0.00 | 1019.0 | |
| 20260904061537 | 0 | 254 | 0.0 | 1.7 | 0.00 | 0.00 | 0.00 | 1018.7 | |
| 20260904060051 | 0 | 254 | 0.9 | 3.5 | 0.00 | 0.00 | 0.00 | 1018.8 | |
| 20260904054540 | 0 | 254 | 2.6 | 4.3 | 0.00 | 0.00 | 0.00 | 1018.9 | |
| 20260904053033 | 0 | 254 | 2.6 | 4.3 | 0.00 | 0.00 | 0.00 | 1018.8 | |
| 20260904051516 | 0 | 254 | 1.7 | 3.5 | 0.00 | 0.00 | 0.00 | 1018.9 | |
| 20260904050027 | 0 | 254 | 0.0 | 0.0 | 0.00 | 0.00 | 0.00 | 1018.8 | |
| 20260904044507 | 0 | 254 | 0.0 | 0.0 | 0.00 | 0.00 | 0.00 | 1018.7 | |
| 20260904043104 | 0 | 254 | 0.0 | 0.0 | 0.00 | 0.00 | 0.00 | 1018.6 | |
| 20260904041604 | 0 | 254 | 0.0 | 1.7 | 0.00 | 0.00 | 0.00 | 1018.5 | |
| 20260904040050 | 0 | 254 | 1.7 | 2.6 | 0.00 | 0.00 | 0.00 | 1018.4 | |
| 20260904034536 | 0 | 254 | 0.0 | 0.0 | 0.00 | 0.00 | 0.00 | 1018.5 | |
| 20260904033027 | 0 | 254 | 0.0 | 0.0 | 0.00 | 0.00 | 0.00 | 1018.7 | |
| 20260904031521 | 0 | 254 | 0.0 | 0.0 | 0.00 | 0.00 | 0.00 | 1018.7 | |
| 20260904030019 | 0 | 254 | 0.9 | 2.6 | 0.00 | 0.00 | 0.00 | 1018.7 | |
| 20260904024521 | 0 | 254 | 0.9 | 1.7 | 0.00 | 0.00 | 0.00 | 1018.8 | |
| 20260904023007 | 0 | 254 | 0.9 | 2.6 | 0.00 | 0.00 | 0.00 | 1018.8 | |
| 20260904021507 | 0 | 254 | 1.7 | 3.5 | 0.00 | 0.00 | 0.00 | 1019.2 | |
| 20260904014617 | 0 | 254 | 0.0 | 0.0 | 0.00 | 0.00 | 0.00 | 1019.6 | |
| 20260904013105 | 0 | 254 | 0.0 | 0.0 | 0.00 | 0.00 | 0.00 | 1019.7 | |
| 20260904011545 | 0 | 254 | 0.0 | 0.0 | 0.00 | 0.00 | 0.00 | 1019.8 | |
| 20260904010041 | 0 | 254 | 0.0 | 0.0 | 0.00 | 0.00 | 0.00 | 1019.8 | |
| 20260904004538 | 0 | 254 | 0.0 | 0.0 | 0.00 | 0.00 | 0.00 | 1019.8 | |
| 20260904003035 | 0 | 254 | 0.0 | 2.6 | 0.00 | 0.00 | 0.00 | 1019.9 | |
| 20260904001627 | 0 | 254 | 1.7 | 2.6 | 0.00 | 0.00 | 0.00 | 1020.1 | |
| 20260904000024 | 0 | 254 | 0.0 | 0.0 | 0.00 | 0.00 | 0.00 | 1020.3 | |
| 20260903234531 | 0 | 254 | 0.0 | 0.0 | 0.00 | 0.00 | 0.00 | 1020.3 | |
| 20260903233028 | 0 | 254 | 0.0 | 0.0 | 0.00 | 0.00 | 0.00 | 1020.2 | |
| 20260903231510 | 0 | 254 | 0.0 | 0.0 | 0.00 | 0.00 | 0.00 | 1020.2 | |
| 20260903230107 | 0 | 254 | 0.0 | 0.0 | 0.00 | 0.00 | 0.00 | 1020.2 | |
| 20260903224505 | 0 | 254 | 0.0 | 1.7 | 0.00 | 0.00 | 0.00 | 1020.2 | |
| 20260903223002 | 0 | 254 | 1.7 | 2.6 | 0.00 | 0.00 | 0.00 | 1020.3 | |
| 20260903221557 | 0 | 254 | 0.0 | 0.0 | 0.00 | 0.00 | 0.00 | 1020.5 | |
| 20260903220052 | 0 | 254 | 0.0 | 0.0 | 0.00 | 0.00 | 0.00 | 1020.4 | |
| 20260903214551 | 0 | 254 | 0.0 | 2.6 | 0.00 | 0.00 | 0.00 | 1020.2 | |
| 20260903213045 | 0 | 254 | 1.7 | 3.5 | 0.00 | 0.00 | 0.00 | 1020.1 | |
| 20260903211553 | 0 | 254 | 0.0 | 0.0 | 0.00 | 0.00 | 0.00 | 1020.0 | |
| 20260903210035 | 0 | 254 | 0.0 | 0.0 | 0.00 | 0.00 | 0.00 | 1019.8 | |
| 20260903204530 | 0 | 254 | 0.0 | 0.0 | 0.00 | 0.00 | 0.00 | 1019.6 | |
| 20260903203029 | 0 | 254 | 0.0 | 0.0 | 0.00 | 0.00 | 0.00 | 1019.2 | |
| 20260903201522 | 0 | 254 | 1.7 | 3.5 | 0.00 | 0.00 | 0.00 | 1018.9 | |
| 20260903200021 | 0 | 254 | 0.0 | 3.5 | 0.00 | 0.00 | 0.00 | 1018.7 | |
| 20260903194521 | 0 | 320 | 0.0 | 4.3 | 0.00 | 0.00 | 0.00 | 1018.6 | |
| 20260903193020 | 0 | 268 | 2.6 | 5.2 | 0.00 | 0.00 | 0.00 | 1018.7 | |
| 20260903191525 | 0 | 341 | 2.6 | 7.0 | 0.00 | 0.00 | 0.00 | 1018.5 | |
| 20260903190016 | 0 | 41 | 2.6 | 4.3 | 0.00 | 0.00 | 0.00 | 1018.3 | |
| 20260903184516 | 0 | 19 | 0.0 | 8.7 | 0.00 | 0.00 | 0.00 | 1018.3 | |
| 20260903183016 | 0 | 322 | 0.0 | 7.8 | 0.00 | 0.00 | 0.00 | 1018.3 | |
| 20260903181512 | 0 | 331 | 4.3 | 7.8 | 0.00 | 0.00 | 0.00 | 1018.3 | |
| 20260903180015 | 0 | 16 | 5.2 | 11.3 | 0.00 | 0.00 | 0.00 | 1018.3 | |
| 20260903174504 | 0 | 357 | 5.2 | 11.3 | 0.00 | 0.00 | 0.00 | 1018.1 | |
| 20260903173105 | 0 | 30 | 2.6 | 9.6 | 0.00 | 0.00 | 0.00 | 1018.2 | |
| 20260903171601 | 0 | 41 | 6.1 | 10.4 | 0.00 | 0.00 | 0.00 | 1018.3 | |
| 20260903170050 | 0 | 28 | 0.0 | 7.8 | 0.00 | 0.00 | 0.00 | 1018.3 | |
| 20260903164548 | 0 | 58 | 5.2 | 9.6 | 0.00 | 0.00 | 0.00 | 1018.1 | |
| 20260903163043 | 0 | 63 | 6.1 | 11.3 | 0.00 | 0.00 | 0.00 | 1018.2 | |
| 20260903161537 | 0 | 21 | 7.8 | 13.0 | 0.00 | 0.00 | 0.00 | 1018.3 | |
| 20260903160033 | 0 | 359 | 7.0 | 14.8 | 0.00 | 0.00 | 0.00 | 1018.5 | |
| 20260903154529 | 0 | 41 | 4.3 | 13.0 | 0.00 | 0.00 | 0.00 | 1018.7 | |
| 20260903153024 | 0 | 54 | 7.0 | 12.2 | 0.00 | 0.00 | 0.00 | 1018.7 | |
| 20260903151521 | 0 | 66 | 5.2 | 13.0 | 0.00 | 0.00 | 0.00 | 1018.8 | |
| 20260903150016 | 0 | 41 | 6.1 | 11.3 | 0.00 | 0.00 | 0.00 | 1018.5 | |
| 20260903144511 | 0 | 41 | 5.2 | 13.0 | 0.00 | 0.00 | 0.00 | 1018.2 | |
| 20260903143006 | 0 | 32 | 8.7 | 12.2 | 0.00 | 0.00 | 0.00 | 1018.1 | |
| 20260903141501 | 0 | 52 | 5.2 | 12.2 | 0.00 | 0.00 | 0.00 | 1018.3 | |
| 20260903140058 | 0 | 46 | 5.2 | 12.2 | 0.00 | 0.00 | 0.00 | 1017.9 | |
| 20260903134601 | 0 | 26 | 8.7 | 13.9 | 0.00 | 0.00 | 0.00 | 1017.8 | |
| 20260903133104 | 0 | 36 | 9.6 | 13.9 | 0.00 | 0.00 | 0.00 | 1018.1 | |
| 20260903131544 | 0 | 60 | 7.8 | 12.2 | 0.00 | 0.00 | 0.00 | 1017.9 | |
| 20260903130055 | 0 | 46 | 7.8 | 13.9 | 0.00 | 0.00 | 0.00 | 1018.1 | |
| 20260903124550 | 0 | 25 | 10.4 | 15.6 | 0.00 | 0.00 | 0.00 | 1018.3 | |
| 20260903123032 | 0 | 36 | 5.2 | 12.2 | 0.00 | 0.00 | 0.00 | 1018.5 | |
| 20260903121532 | 0 | 60 | 5.2 | 9.6 | 0.00 | 0.00 | 0.00 | 1018.5 | |
| 20260903120022 | 0 | 10 | 4.3 | 11.3 | 0.00 | 0.00 | 0.00 | 1018.6 | |
| 20260903114518 | 0 | 27 | 1.7 | 11.3 | 0.00 | 0.00 | 0.00 | 1018.6 | |
| 20260903113013 | 0 | 36 | 4.3 | 10.4 | 0.00 | 0.00 | 0.00 | 1018.8 | |
| 20260903111508 | 0 | 46 | 7.0 | 10.4 | 0.00 | 0.00 | 0.00 | 1018.9 | |
| 20260903110004 | 0 | 46 | 5.2 | 10.4 | 0.00 | 0.00 | 0.00 | 1018.7 | |
| 20260903104604 | 0 | 41 | 3.5 | 7.8 | 0.00 | 0.00 | 0.00 | 1018.5 | |
| 20260903103056 | 0 | 185 | 0.0 | 0.0 | 0.00 | 0.00 | 0.00 | 1018.4 | |
| 20260903101554 | 0 | 185 | 0.0 | 0.0 | 0.00 | 0.00 | 0.00 | 1018.2 | |
| 20260903100049 | 0 | 185 | 0.0 | 0.0 | 0.00 | 0.00 | 0.00 | 1018.3 | |
| 20260903094550 | 0 | 185 | 0.0 | 0.0 | 0.00 | 0.00 | 0.00 | 1018.1 | |
| 20260903093038 | 0 | 185 | 0.0 | 0.0 | 0.00 | 0.00 | 0.00 | 1017.9 | |
| 20260903091535 | 0 | 185 | 0.0 | 0.0 | 0.00 | 0.00 | 0.00 | 1017.9 |